sat.trackr.live / text

‹ back to catalog

STARLINK-32648

NORAD 62301 · 2024-239A

PAYLOAD ACTIVE UNKNOWN

§ Identity

Operator
Country
US
Launch date
2024-12-13
Launch site
AFWTR
Launch vehicle
Mass (kg)
RCS (m²)

Purposes: comms

External: N2YO · Heavens-Above · Gunter

§ Orbital elements

Epoch: 2026-05-24T12:51:35.101152Z

Period
94.11 min
Inclination
53.1584°
Eccentricity
0.0001082
Mean motion
15.30176785 rev/d
Perigee alt
474.5 km
Apogee alt
476.0 km
Semi-major
6,853.4 km
B*
3.7010e-4
RAAN
189.0314°
Arg perigee
88.7045°
Mean anomaly
271.4079°
Rev number
8,117

§ Raw data

STARLINK-326481 62301U 24239A   26144.53582293  .00010610  00000+0  37010-3 0  99972 62301  53.1584 189.0314 0001082  88.7045 271.4079 15.30176785 81179

JSON: /api/v1/satellites/62301 · /tle

For live sub-satellite position, see the globe view (requires WebGL).

§ Visibility from observer

Set your observer location to see the next 7 days of passes ≥ 10°. The values pass through the URL so the page stays shareable.

No JS? Fill the form by hand. The geolocation button needs JavaScript.